Location: Unspecified
(0.0000°N, 0.0000°E)
Time: 04:33:20
(UTC+00:00)

Transit 4A - Pass Details

Date: 02 October 2020
Orbit: 862 x 982 km, 66.8° (Epoch: 28 October)

Event Time Altitude Azimuth Distance (km) Brightness Sun altitude
Rises 08:41:17 0° 311° (NW) 3,635 10.6 42.9°
Reaches altitude 10° 08:44:38 10° 294° (WNW) 2,673 10.0 43.7°
Maximum altitude 08:48:50 19° 251° (WSW) 2,078 9.5 44.8°
Drops below altitude 10° 08:53:00 10° 207° (SSW) 2,624 10.2 45.8°
Sets 08:56:17 0° 190° (S) 3,544 10.9 46.6°
